Weather History for KAPF - September, 2014

Change the Weather History Date:

Wednesday, September 17, 2014

  Actual Average Record
Temperature  
Mean Temperature 80 °F 82 °F  
Max Temperature 86 °F 90 °F 95 °F (1986)
Min Temperature 73 °F 75 °F 67 °F (1961)
Degree Days  
Heating Degree Days 0 0  
Month to date heating degree days 0 0  
Since 1 July heating degree days 0 0  
Cooling Degree Days 15 17  
Month to date cooling degree days 300 304  
Year to date cooling degree days 3170 2961  
Growing Degree Days 28 (Base 50)    
Moisture  
Dew Point 73 °F    
Average Humidity 83    
Maximum Humidity 100    
Minimum Humidity 65    
Precipitation  
Precipitation 0.94 in 0.30 in 2.35 in (1953)
Month to date precipitation 4.47 4.36  
Year to date precipitation 42.32 40.88  
Snow  
Snow 0.00 in - - ()
Month to date snowfall 0.0  
Since 1 July snowfall 0.0  
Since 1 September snowfall 0.0  
Snow Depth 0.00 in    
Sea Level Pressure  
Sea Level Pressure 29.95 in    
Wind  
Wind Speed 4 mph (WNW)    
Max Wind Speed 22 mph    
Max Gust Speed 27 mph    
Visibility 8 miles    
Events Rain    
T = Trace of Precipitation, MM = Missing Value Source: NWS Daily Summary

Daily Weather History Graph

Daily Weather History Graph

Search for Another Location

Airport or City:

Trip Planner

Search our weather history database for the weather conditions in past years. The results will help you decide how hot, cold, wet, or windy it might be!

Date:

Astronomy

Sep. 17, 2014 Rise Set
Actual Time 7:13 AM EDT 7:29 PM EDT
Civil Twilight 6:50 AM EDT 7:52 PM EDT
Nautical Twilight 6:23 AM EDT 8:19 PM EDT
Astronomical Twilight 5:56 AM EDT 8:46 PM EDT
Moon 1:36 AM EDT (9/17) 3:14 PM EDT (9/17)
Length of Visible Light 13h 01m
Length of Day
12h 15m
Waning Crescent, 35% of the Moon is Illuminated
Sep 17
Waning Crescent
Sep 24
New
Oct 1
First Quarter
Oct 8
Full
Oct 15
Last Quarter

Hourly Weather History & Observations

Time (EDT) Temp. Heat Index Dew Point Humidity Pressure Visibility Wind Dir Wind Speed Gust Speed Precip Events Conditions
12:53 AM 77.0 °F - 72.0 °F 84% 30.00 in 10.0 mi NNE 3.5 mph - N/A   Scattered Clouds
1:53 AM 77.0 °F - 72.0 °F 84% 29.98 in 10.0 mi Calm Calm - N/A   Clear
2:53 AM 77.0 °F - 72.0 °F 84% 29.96 in 10.0 mi Calm Calm - N/A   Clear
3:53 AM 78.1 °F - 71.1 °F 79% 29.96 in 10.0 mi Calm Calm - N/A   Scattered Clouds
4:53 AM 78.1 °F - 72.0 °F 81% 29.94 in 10.0 mi Calm Calm - N/A   Clear
5:53 AM 78.1 °F - 73.0 °F 84% 29.94 in 10.0 mi Calm Calm - N/A   Clear
6:53 AM 78.1 °F - 73.0 °F 84% 29.96 in 10.0 mi North 3.5 mph - N/A   Scattered Clouds
7:53 AM 79.0 °F - 73.0 °F 82% 29.96 in 10.0 mi NE 3.5 mph - N/A   Partly Cloudy
8:53 AM 80.1 °F 84.2 °F 73.0 °F 79% 29.97 in 10.0 mi Calm Calm - N/A   Clear
9:53 AM 82.0 °F 86.7 °F 72.0 °F 71% 29.98 in 10.0 mi Calm Calm - N/A   Partly Cloudy
10:53 AM 84.0 °F 91.2 °F 73.9 °F 72% 29.98 in 10.0 mi South 5.8 mph - N/A   Clear
11:53 AM 84.0 °F 89.6 °F 72.0 °F 67% 29.97 in 10.0 mi South 6.9 mph - N/A   Partly Cloudy
12:53 PM 84.9 °F 91.4 °F 73.0 °F 67% 29.96 in 10.0 mi SW 8.1 mph - N/A   Partly Cloudy
2:41 PM 80.1 °F 83.8 °F 72.0 °F 76% 29.94 in 10.0 mi NNW 15.0 mph - N/A   Mostly Cloudy
2:53 PM 80.1 °F 83.6 °F 71.1 °F 74% 29.94 in 10.0 mi NNW 9.2 mph - N/A   Mostly Cloudy
3:14 PM 78.1 °F - 73.0 °F 84% 29.94 in 2.0 mi WNW 21.9 mph 26.5 mph 0.02 in Rain Light Rain
3:25 PM 75.0 °F - 72.0 °F 90% 29.93 in 2.0 mi WNW 9.2 mph 21.9 mph 0.16 in Rain Heavy Rain
3:48 PM 75.2 °F - 73.4 °F 94% 29.93 in 3.0 mi West 5.8 mph - 0.19 in Rain Light Rain
3:53 PM 77.0 °F - 75.0 °F 94% 29.93 in 4.0 mi WNW 5.8 mph - 0.19 in Rain Light Rain
4:53 PM 77.0 °F - 75.0 °F 94% 29.90 in 10.0 mi Calm Calm - 0.00 in   Mostly Cloudy
5:53 PM 79.0 °F - 75.9 °F 90% 29.89 in 10.0 mi SW 3.5 mph - N/A   Clear
6:53 PM 77.0 °F - 75.0 °F 94% 29.90 in 10.0 mi NW 3.5 mph - 0.00 in   Mostly Cloudy
7:53 PM 77.0 °F - 73.9 °F 90% 29.92 in 9.0 mi West 4.6 mph - 0.04 in Rain Light Rain
8:02 PM 78.1 °F - 73.0 °F 84% 29.92 in 10.0 mi SW 3.5 mph - 0.00 in   Overcast
8:53 PM 78.1 °F - 75.0 °F 90% 29.93 in 10.0 mi SSW 3.5 mph - 0.00 in   Overcast
9:19 PM 77.0 °F - 75.0 °F 94% 29.93 in 10.0 mi SE 3.5 mph - N/A   Overcast
9:33 PM 77.0 °F - 75.0 °F 94% 29.94 in 10.0 mi East 4.6 mph - N/A   Overcast
9:53 PM 75.9 °F - 73.9 °F 94% 29.94 in 4.0 mi East 4.6 mph - 0.02 in Rain Rain
10:12 PM 75.9 °F - 73.9 °F 94% 29.95 in 1.8 mi SSE 5.8 mph - 0.10 in Rain Heavy Rain
10:31 PM 77.0 °F - 75.0 °F 94% 29.95 in 3.0 mi East 5.8 mph - 0.32 in Rain Rain
10:53 PM 75.9 °F - 73.9 °F 94% 29.95 in 8.0 mi ESE 6.9 mph - 0.35 in Rain Light Rain
11:27 PM 75.0 °F - 73.0 °F 94% 29.96 in 4.0 mi NNE 6.9 mph - 0.04 in Rain Rain
11:34 PM 75.0 °F - 73.0 °F 94% 29.95 in 4.0 mi NE 8.1 mph - 0.07 in Rain Heavy Rain
11:45 PM 73.0 °F - 72.0 °F 96% 29.95 in 1.8 mi NE 6.9 mph - 0.24 in Rain Heavy Rain
11:53 PM 73.9 °F - 73.0 °F 97% 29.95 in 1.2 mi SE 8.1 mph - 0.33 in Rain Heavy Rain
11:56 PM 73.9 °F - 73.0 °F 97% 29.95 in 2.5 mi SW 4.6 mph - 0.00 in Rain Rain